• In Belarus
  • List of Countries
  • For 7 days
  • Water Temperature
  • Satellite Maps
  • Weather Map
  • Weather Widgets
  • user-avatar
    Login

    Hourly Weather Dushanbe

    Today, 16 December, Sunday

    Time Temperature Precipitation Wind Pressure Humidity
    00:00 +7°C° 0 mm 3 mps 693 mmHg 32%
    01:00 +5°C° 0 mm 3 mps 693 mmHg 33%
    02:00 +5°C° 0 mm 3 mps 694 mmHg 33%
    03:00 +5°C° 0 mm 3 mps 694 mmHg 35%
    04:00 +5°C° 0 mm 3 mps 694 mmHg 36%
    05:00 +5°C° 0 mm 3 mps 695 mmHg 39%
    06:00 +4°C° 0 mm 3 mps 696 mmHg 41%
    07:00 +4°C° 0 mm 3 mps 696 mmHg 43%
    08:00 +4°C° 0 mm 3 mps 696 mmHg 45%
    09:00 +5°C° 0 mm 3 mps 697 mmHg 44%
    10:00 +8°C° 0 mm 3 mps 697 mmHg 43%
    11:00 +9°C° 0 mm 3 mps 697 mmHg 43%
    12:00 +9°C° 0 mm 3 mps 697 mmHg 43%
    13:00 +10°C° 0 mm 2 mps 697 mmHg 43%
    14:00 +10°C° 0 mm 2 mps 696 mmHg 43%
    15:00 +9°C° 0 mm 2 mps 696 mmHg 45%
    16:00 +8°C° 0 mm 2 mps 695 mmHg 48%
    17:00 +7°C° 0 mm 2 mps 695 mmHg 50%
    18:00 +6°C° 0 mm 2 mps 695 mmHg 50%
    19:00 +6°C° 0 mm 2 mps 694 mmHg 50%
    20:00 +6°C° 0 mm 2 mps 694 mmHg 49%
    21:00 +6°C° 0 mm 2 mps 694 mmHg 48%
    22:00 +6°C° 0 mm 2 mps 693 mmHg 47%
    23:00 +6°C° 0 mm 2 mps 693 mmHg 45%

    Tomorrow, 17 December, Monday

    Time Temperature Precipitation Wind Pressure Humidity
    00:00 +6°C° 0 mm 2 mps 693 mmHg 44%
    01:00 +6°C° 0 mm 2 mps 693 mmHg 42%
    02:00 +6°C° 0 mm 2 mps 692 mmHg 41%
    03:00 +6°C° 0 mm 2 mps 692 mmHg 40%
    04:00 +5°C° 0 mm 2 mps 692 mmHg 38%
    05:00 +5°C° 0 mm 2 mps 692 mmHg 37%
    06:00 +4°C° 0 mm 3 mps 692 mmHg 36%
    07:00 +4°C° 0 mm 3 mps 692 mmHg 35%
    08:00 +4°C° 0 mm 3 mps 692 mmHg 34%
    09:00 +7°C° 0 mm 3 mps 693 mmHg 34%
    10:00 +9°C° 0 mm 3 mps 693 mmHg 33%
    11:00 +10°C° 0 mm 3 mps 693 mmHg 33%
    12:00 +11°C° 0 mm 3 mps 693 mmHg 32%
    13:00 +11°C° 0 mm 3 mps 693 mmHg 31%
    14:00 +12°C° 0 mm 3 mps 692 mmHg 31%
    15:00 +11°C° 0 mm 3 mps 692 mmHg 33%
    16:00 +10°C° 0 mm 2 mps 692 mmHg 35%
    17:00 +9°C° 0 mm 2 mps 692 mmHg 37%
    18:00 +8°C° 0 mm 3 mps 692 mmHg 38%
    19:00 +8°C° 0 mm 3 mps 692 mmHg 39%
    20:00 +7°C° 0 mm 3 mps 693 mmHg 39%
    21:00 +7°C° 0 mm 3 mps 692 mmHg 39%
    22:00 +5°C° 0 mm 3 mps 692 mmHg 40%
    23:00 +5°C° 0 mm 3 mps 692 mmHg 40%

    Day after tomorrow, 18 December, Tuesday

    Time Temperature Precipitation Wind Pressure Humidity
    00:00 +5°C° 0 mm 3 mps 692 mmHg 40%
    01:00 +5°C° 0 mm 3 mps 692 mmHg 40%
    02:00 +5°C° 0 mm 3 mps 692 mmHg 40%
    03:00 +5°C° 0 mm 3 mps 691 mmHg 40%
    04:00 +5°C° 0 mm 3 mps 691 mmHg 40%
    05:00 +7°C° 0 mm 3 mps 691 mmHg 40%
    06:00 +7°C° 0 mm 3 mps 691 mmHg 40%
    07:00 +7°C° 0 mm 3 mps 691 mmHg 40%
    08:00 +5°C° 0 mm 3 mps 691 mmHg 39%
    09:00 +8°C° 0 mm 3 mps 691 mmHg 38%
    10:00 +10°C° 0 mm 3 mps 692 mmHg 37%
    11:00 +11°C° 0 mm 3 mps 692 mmHg 35%
    12:00 +12°C° 0 mm 3 mps 691 mmHg 35%
    13:00 +12°C° 0 mm 3 mps 691 mmHg 34%
    14:00 +13°C° 0 mm 3 mps 690 mmHg 34%
    15:00 +12°C° 0 mm 3 mps 690 mmHg 36%
    16:00 +11°C° 0 mm 3 mps 690 mmHg 39%
    17:00 +10°C° 0 mm 3 mps 689 mmHg 41%
    18:00 +10°C° 0.1 mm 3 mps 689 mmHg 42%
    19:00 +9°C° 0.1 mm 3 mps 689 mmHg 43%
    20:00 +9°C° 0.1 mm 3 mps 689 mmHg 44%
    21:00 +9°C° 0 mm 3 mps 688 mmHg 43%
    22:00 +9°C° 0 mm 3 mps 688 mmHg 41%
    23:00 +9°C° 0 mm 3 mps 687 mmHg 40%

    19 December, Wednesday

    Time Temperature Precipitation Wind Pressure Humidity
    00:00 +9°C° 0 mm 3 mps 687 mmHg 39%
    01:00 +9°C° 0 mm 3 mps 687 mmHg 39%
    02:00 +9°C° 0 mm 3 mps 687 mmHg 39%
    03:00 +9°C° 0 mm 3 mps 687 mmHg 40%
    04:00 +9°C° 0 mm 3 mps 686 mmHg 41%
    05:00 +9°C° 0 mm 2 mps 686 mmHg 41%
    06:00 +9°C° 0 mm 2 mps 687 mmHg 41%
    07:00 +9°C° 0 mm 2 mps 687 mmHg 40%
    08:00 +8°C° 0 mm 2 mps 687 mmHg 39%
    09:00 +9°C° 0.1 mm 2 mps 688 mmHg 40%
    10:00 +10°C° 0.1 mm 2 mps 689 mmHg 40%
    11:00 +10°C° 0.1 mm 2 mps 690 mmHg 41%
    12:00 +10°C° 0.3 mm 2 mps 690 mmHg 44%
    13:00 +10°C° 0.3 mm 2 mps 690 mmHg 47%
    14:00 +9°C° 0.3 mm 2 mps 691 mmHg 50%
    15:00 +9°C° 0.3 mm 2 mps 691 mmHg 53%
    16:00 +8°C° 0.3 mm 2 mps 691 mmHg 57%
    17:00 +7°C° 0.3 mm 2 mps 692 mmHg 61%
    18:00 +7°C° 0.3 mm 2 mps 692 mmHg 63%
    19:00 +7°C° 0.3 mm 2 mps 693 mmHg 66%
    20:00 +6°C° 0.3 mm 2 mps 693 mmHg 68%
    21:00 +6°C° 0.5 mm 2 mps 693 mmHg 71%
    22:00 +6°C° 0.5 mm 2 mps 694 mmHg 73%
    23:00 +5°C° 0.5 mm 2 mps 694 mmHg 76%

    20 December, Thursday

    Time Temperature Precipitation Wind Pressure Humidity
    00:00 +5°C° 0.5 mm 2 mps 694 mmHg 78%
    01:00 +5°C° 0.5 mm 2 mps 694 mmHg 80%
    02:00 +5°C° 0.5 mm 2 mps 694 mmHg 82%
    03:00 +4°C° 0.4 mm 2 mps 694 mmHg 83%
    04:00 +4°C° 0.4 mm 2 mps 694 mmHg 84%
    05:00 +4°C° 0.4 mm 2 mps 694 mmHg 85%
    06:00 +4°C° 0.2 mm 2 mps 694 mmHg 85%
    07:00 +4°C° 0.2 mm 2 mps 694 mmHg 85%
    08:00 +4°C° 0.2 mm 2 mps 695 mmHg 85%
    09:00 +4°C° 0.2 mm 2 mps 695 mmHg 81%
    10:00 +5°C° 0.2 mm 2 mps 695 mmHg 78%
    11:00 +6°C° 0.2 mm 2 mps 695 mmHg 75%
    12:00 +6°C° 0.1 mm 2 mps 695 mmHg 72%
    13:00 +7°C° 0.1 mm 3 mps 694 mmHg 69%
    14:00 +7°C° 0.1 mm 3 mps 694 mmHg 66%
    15:00 +7°C° 0.1 mm 2 mps 693 mmHg 67%
    16:00 +6°C° 0.1 mm 2 mps 693 mmHg 68%
    17:00 +5°C° 0.1 mm 2 mps 693 mmHg 69%
    18:00 +5°C° 0 mm 2 mps 693 mmHg 69%
    19:00 +3°C° 0 mm 3 mps 692 mmHg 68%
    20:00 +3°C° 0 mm 3 mps 692 mmHg 67%
    21:00 +3°C° 0 mm 3 mps 692 mmHg 66%
    22:00 +3°C° 0 mm 3 mps 692 mmHg 65%
    23:00 +2°C° 0 mm 3 mps 692 mmHg 63%

    21 December, Friday

    Time Temperature Precipitation Wind Pressure Humidity
    00:00 +2°C° 0 mm 3 mps 691 mmHg 62%
    01:00 +2°C° 0 mm 3 mps 691 mmHg 60%
    02:00 +2°C° 0 mm 3 mps 690 mmHg 59%
    03:00 +2°C° 0 mm 3 mps 690 mmHg 56%
    04:00 +2°C° 0 mm 3 mps 689 mmHg 54%
    05:00 +2°C° 0 mm 3 mps 689 mmHg 51%
    06:00 +3°C° 0 mm 3 mps 688 mmHg 49%
    07:00 +3°C° 0 mm 3 mps 688 mmHg 47%
    08:00 +4°C° 0 mm 3 mps 688 mmHg 44%
    09:00 +5°C° 0 mm 3 mps 688 mmHg 42%
    10:00 +8°C° 0 mm 3 mps 688 mmHg 41%
    11:00 +10°C° 0 mm 3 mps 688 mmHg 39%
    12:00 +11°C° 0 mm 3 mps 687 mmHg 37%
    13:00 +12°C° 0 mm 2 mps 687 mmHg 35%
    14:00 +13°C° 0 mm 2 mps 686 mmHg 34%
    15:00 +12°C° 0 mm 2 mps 686 mmHg 35%
    16:00 +10°C° 0 mm 2 mps 685 mmHg 36%
    17:00 +9°C° 0 mm 2 mps 685 mmHg 37%
    18:00 +8°C° 0 mm 2 mps 686 mmHg 37%
    19:00 +8°C° 0 mm 2 mps 686 mmHg 38%
    20:00 +8°C° 0 mm 2 mps 686 mmHg 38%
    21:00 +7°C° 0.1 mm 2 mps 687 mmHg 40%
    22:00 +7°C° 0.1 mm 2 mps 687 mmHg 42%
    23:00 +7°C° 0.1 mm 2 mps 687 mmHg 44%
    Show more